Flag for U.S.A. Weather past 2 weeks in Lynchburg, Virginia, U.S.A.

Now
60 °F

Overcast.


Feels Like: 60 °F
Forecast: 57 / 78 °F
Wind: 5 mph from North

Location: Lynchburg Regional Airport

Current Time: Sep 20, 2014 at 3:00:14 AM

Latest Report: Sep 20, 2014 at 1:54 AM


Visibility: 10 mi

Pressure: 30.27 "Hg

Humidity: 96%

Dew point: 59 °F

Location of LynchburgLocation

Historic Weather in Lynchburg — Graph

°F

Lynchburg temperature yesterday

Maximum temperature yesterday: 64 °F (at 12:54 AM)
Minimum temperature yesterday: 61 °F (at 9:54 PM)
Average temperature yesterday: 63 °F

Past Weeks' High & Low Weather Summary

 TemperatureHumidityPressure
High86 °F (Sep 6, 1:54 PM)100% (Sep 5, 1:54 AM)30.33 "Hg (Sep 5, 1:54 AM)
Low53 °F (Sep 15, 6:54 AM)52% (Sep 17, 3:54 PM)29.91 "Hg (Sep 11, 4:54 PM)
Average67 °F84%30.10 "Hg
* Reported Sep 5 1:54 AM — Sep 20 1:54 AM, Lynchburg, Weather by CustomWeather, © 2014

Note: Actual official high and low records may vary slightly from our data, if they occured in-between our weather recording intervals... More about our weather records

Advertising

Lynchburg weather history for previous 24 hours

 ConditionsComfort  
Time TempWeatherWind HumidityBarometerVisibility
1:54 AM
Sep 20
60 °FOvercast.5 mph96%30.27 "Hg10 mi
12:54 AM60 °FPassing clouds.No wind96%30.27 "Hg10 mi
11:54 PM
Sep 19
61 °FOvercast.No wind93%30.28 "Hg10 mi
10:54 PM61 °FMostly cloudy.5 mph90%30.28 "Hg10 mi
9:54 PM61 °FMostly cloudy.5 mph90%30.27 "Hg10 mi
8:54 PM62 °FOvercast.6 mph90%30.26 "Hg10 mi
7:54 PM62 °FMostly cloudy.3 mph93%30.25 "Hg10 mi
6:54 PM63 °FLight rain. More clouds than sun.6 mph90%30.25 "Hg10 mi
5:54 PM64 °FOvercast.7 mph84%30.25 "Hg10 mi
4:54 PM64 °FOvercast.6 mph84%30.24 "Hg10 mi
3:54 PM63 °FMostly cloudy.3 mph84%30.25 "Hg10 mi
2:54 PM63 °FOvercast.8 mph87%30.25 "Hg10 mi
2:01 PM63 °FOvercast.7 mph90%30.27 "Hg10 mi
12:54 PM62 °FMostly cloudy.8 mph93%30.26 "Hg10 mi
11:54 AM62 °FMostly cloudy.5 mph96%30.24 "Hg10 mi
10:54 AM62 °FMostly cloudy.3 mph96%30.24 "Hg9 mi
9:54 AM62 °FLight rain. Overcast.3 mph93%30.23 "Hg8 mi
8:54 AM62 °FOvercast.7 mph93%30.20 "Hg10 mi
7:54 AM62 °FOvercast.6 mph96%30.18 "Hg10 mi
6:54 AM62 °FLow clouds.7 mph96%30.16 "Hg10 mi
5:58 AM63 °FMostly cloudy.6 mph93%30.17 "Hg10 mi
4:54 AM63 °FOvercast.5 mph97%30.12 "Hg10 mi
4:01 AM63 °FOvercast.5 mph97%30.13 "Hg10 mi
Weather by CustomWeather, © 2014

See weather overviewHow to use our weather pages